Regional Weather Roundup
Issued by NWS

Home | Current Version | Previous Version | Graphics & Text | Print | Product List | Glossary On
Versions: 1 2 3 4 5 6 7 8 9 10 11 12 13 14 15 16 17 18 19 20 21 22 23 24 25 26 27 28 29 30 31 32 33 34 35 36 37 38 39 40 41 42 43 44 45 46 47 48 49 50
000
ASUS43 KMPX 041901
RWRMN
WEATHER ROUNDUP FOR MINNESOTA
NATIONAL WEATHER SERVICE TWIN CITIES/CHANHASSEN MN
100 PM CST WED MAR 04 2015


NOTE: "FAIR" INDICATES FEW OR NO CLOUDS BELOW 12,000 FEET WITH NO
SIGNIFICANT WEATHER AND/OR OBSTRUCTIONS TO VISIBILITY. N/A MEANS
CURRENT SKY AND/OR WEATHER CONDITIONS ARE NOT AVAILABLE.

MNZ060>063-068>070-042000-
   Twin Cities Metro

CITY           SKY/WX    TMP DP  RH WIND       PRES   REMARKS
$$
MNZ001>005-007-008-013>017-022>024-027-028-042000-
   Northwest Minnesota

CITY           SKY/WX    TMP DP  RH WIND       PRES   REMARKS
THIEF RVR FALL CLOUDY    -2 -15  55 W17       30.25R WCI -24
FOSSTON        SUNNY      0 -13  55 W14G21    30.24R WCI -19
DETROIT LAKES  MOSUNNY    1  -9  60 NW15G22   30.25R WCI -18
MAHNOMEN       CLOUDY    -1  -8  71 NW16      30.25R HAZE    WCI -22
$$
MNZ006-009>011-018-025>026-042000-
   North Central Minnesota

CITY           SKY/WX    TMP DP  RH WIND       PRES   REMARKS
WASKISH        SUNNY      1 -11  55 W10G16    30.18R WCI -14
LONGVILLE      SUNNY      0 -18  42 NW10G21   30.18R WCI -17
GRAND RAPIDS   CLOUDY    -2 -15  55 W14G22    30.13R WCI -21
ORR            MOSUNNY    0 -17  46 W13G18    30.08R WCI -18
WALKER         MOCLDY    -1 -16  49 NW10G18   30.18R WCI -18
$$
MNZ012-019>021-037-042000-
   Northeast Minnesota

CITY           SKY/WX    TMP DP  RH WIND       PRES   REMARKS
$$
MNZ029>031-032-039>041-046>048-054>057-064-042000-
   West Central Minnesota

CITY           SKY/WX    TMP DP  RH WIND       PRES   REMARKS
WHEATON        SUNNY      1 -11  55 NW14G25   30.35R WCI -17
ELBOW LAKE     CLOUDY     1  -9  62 NW17G26   30.28R WCI -19
WADENA         PTSUNNY   -2 -11  65 NW17      30.22R HAZE    WCI -24
WILLMAR        FAIR       7  -8  51 NW23      30.28R WCI -14
$$
MNZ033>034-036-042>043-049>051-058-059-042000-
   Central Minnesota

CITY           SKY/WX    TMP DP  RH WIND       PRES   REMARKS
LONG PRAIRIE   FAIR       3  -9  55 W16       30.22R WCI -16
BUFFALO        SUNNY      9  -8  46 W17G23    30.26S WCI  -9
MAPLE LAKE     MOSUNNY    9  -6  50 NW15G22   30.25S WCI  -8
$$
MNZ037-044-045-052-053-042000-
   East Central Minnesota

CITY           SKY/WX    TMP DP  RH WIND       PRES   REMARKS
MORA           MOSUNNY    9 -11  40 NW14      30.21R WCI  -8
CAMBRIDGE      SUNNY      7  -8  51 W17G26    30.20S WCI -12
RUSH CITY      PTSUNNY    8 -10  43 NW13      30.21S WCI  -8
CLOQUET        CLOUDY     1 -15  46 W13G20    30.11R WCI -16
$$
MNZ071>073-080-081-089-090-097-098-042000-
   Southwest Minnesota

CITY           SKY/WX    TMP DP  RH WIND       PRES   REMARKS
MARSHALL       CLOUDY     9  -4  56 N18       30.30R WCI -10
WORTHINGTON    PTSUNNY   10   0  61 N16G22    30.25R WCI  -7
$$
MNZ065>067-074>077-082>085-091>093-042000-
   South Central Minnesota

CITY           SKY/WX    TMP DP  RH WIND       PRES   REMARKS
MANKATO        PTSUNNY   10   0  61 NW15G23   30.26S WCI  -6
FAIRMONT       CLOUDY    12   0  57 NW8       30.24S WCI   1
GLENCOE        PTSUNNY   10   2  70 NW14      30.26R WCI  -5
OWATONNA       SUNNY     10   0  61 NW15      30.23F WCI  -6
$$
MNZ078>079-086>088-094>096-042000-
   Southeast Minnesota

CITY           SKY/WX    TMP DP  RH WIND       PRES   REMARKS
WINONA         SUNNY     14  -2  48 W13       30.25F WCI   0
AUSTIN         SUNNY      9  -2  61 NW10G18   30.22F WCI  -6
PRESTON        SUNNY      8  -4  59 NW13      30.21F WCI  -8
$$
ABBREVIATIONS USED IN REMARKS
   TC - TEMPERATURES IN CELSIUS
  WCI - WIND CHILL INDEX
   HX - HEAT INDEX
  VSB - VISIBILITY
$$


USA.gov is the U.S. government's official web portal to all federal, state and local government web resources and services.